Location: Leipzig
(51.3203°N, 12.3761°E)
Time: 06:14:04
(UTC+01:00)

ISS - Pass Details

Date: 30 November 2021
Orbit: 413 x 422 km, 51.6° (Epoch: 22 January)

Event Time Altitude Azimuth Distance (km) Brightness Sun altitude
Rises 19:23:11 0° 284° (WNW) 2,384 1.2 -29.8°
Reaches altitude 10° 19:25:20 10° 279° (W) 1,514 0.0 -30.1°
Enters shadow 19:26:03 15° 275° (W) 1,236 -0.6 -30.3°
